Theta_e
315 315 317 314 314 315 316 318 318 319 317 319 321 321 320 320 317 317 316 316 315 315 313 311 310 311 313 314 314 312 311 310 311 311 312 312 313 313 313 310 309 309 309 309
315 314 313 315 315 315 316 319 320 318 316 316 319 320 320 317 314 312 314 314 313 312 312 310 310 311 312 312 312 311 311 311 311 311 311 312 313 313 312 309 309 309 309 310
310 312 313 314 314 314 314 316 319 316 316 317 319 325 319 316 313 311 311 311 311 311 310 310 309 310 311 311 311 310 310 310 310 310 311 312 313 313 312 311 310 309 309 310
312 312 313 313 313 313 313 314 315 315 316 322 319 341 326 319 316 312 310 310 310 310 309 308 308 309 310 310 310 310 310 310 310 310 312 313 314 314 312 311 310 310 309 311
312 313 313 313 312 314 314 314 315 316 318 321 322 329 329 316 318 312 310 308 307 307 308 307 308 308 309 310 310 310 310 309 310 310 311 313 313 312 311 310 311 310 310 311
312 310 313 314 312 312 314 316 317 318 320 328 325 326 335 317 310 310 308 306 305 305 306 307 307 308 309 309 309 309 309 309 309 310 310 311 312 312 311 312 312 312 312 312
311 313 311 311 314 313 315 317 326 327 327 326 314 319 320 309 307 306 305 305 303 303 304 305 306 307 307 307 308 308 308 308 308 308 309 310 310 310 310 312 312 313 313 313
311 308 312 312 315 316 316 318 326 329 327 323 313 320 317 306 304 304 303 302 302 301 301 300 300 301 302 303 304 306 307 307 307 307 308 309 309 309 310 310 311 312 313 313
306 309 309 310 311 314 316 317 314 314 312 316 317 313 307 306 304 303 302 301 300 299 298 298 297 297 297 298 299 300 301 303 304 305 306 307 308 309 309 310 309 310 311 312
312 312 310 309 310 311 314 314 317 318 322 319 314 313 316 308 306 303 301 300 299 298 297 297 296 295 295 295 296 296 297 298 299 299 302 305 307 308 308 309 309 309 310 311
316 316 311 310 313 312 313 314 313 314 315 312 310 312 307 306 303 302 299 298 297 297 296 296 295 294 293 293 293 293 294 294 295 298 299 302 304 306 306 308 308 309 309 311
316 319 316 310 309 309 311 311 313 311 314 312 312 313 304 302 300 300 298 297 296 295 295 294 293 293 292 292 292 292 291 292 292 294 296 297 299 302 304 305 306 307 308 309
316 317 322 318 314 311 312 311 312 311 311 313 313 312 303 300 300 298 298 296 295 295 294 294 293 292 291 291 291 291 290 290 291 291 291 292 293 294 296 298 301 303 305 307
313 315 319 322 318 315 312 312 311 312 315 312 312 310 304 302 300 298 297 296 295 294 293 293 292 291 290 290 290 290 290 289 290 290 290 290 290 290 291 292 294 296 299 303
310 316 315 313 312 313 313 311 311 312 312 314 314 312 306 303 300 298 296 295 294 293 292 291 290 289 289 287 287 288 288 287 288 288 288 288 289 289 289 290 290 292 293 296
308 313 313 312 312 313 314 312 313 312 312 312 310 306 304 300 298 297 296 295 293 291 289 288 287 286 285 283 283 285 285 284 284 284 284 285 286 287 288 288 289 290 290 291
309 311 313 315 309 312 315 309 308 306 304 306 314 305 299 299 298 296 294 293 292 290 288 287 285 285 283 282 282 283 282 282 281 281 281 281 282 283 284 286 287 288 288 289
305 308 310 313 309 318 305 300 302 305 301 300 301 300 300 298 294 293 292 292 289 288 286 285 284 283 282 280 281 281 281 280 280 280 280 280 280 281 282 282 282 283 285 287
301 305 306 312 311 305 303 300 302 304 302 298 298 297 297 294 293 292 291 289 287 286 285 283 283 282 281 279 279 280 280 279 279 279 279 279 279 279 280 281 281 281 282 282
299 301 306 307 309 309 302 297 296 297 306 296 296 296 296 294 298 296 290 287 286 284 283 282 281 281 280 279 279 280 280 279 278 278 277 277 277 278 279 279 279 280 280 281
300 301 304 306 307 305 296 296 296 306 302 294 294 293 296 296 294 291 287 286 284 283 282 280 280 280 279 278 278 279 279 277 277 276 275 275 276 276 277 278 278 279 279 280
298 301 301 301 303 304 295 295 300 297 294 293 292 292 291 291 289 287 286 285 283 282 281 279 279 279 278 277 276 277 277 275 275 274 273 273 273 274 275 276 276 277 278 279
297 298 302 300 301 294 296 295 293 294 294 292 292 291 290 289 288 287 286 285 283 282 280 278 278 277 277 276 275 275 275 273 272 271 270 271 271 273 273 274 275 276 276 278
291 288 294 293 293 292 293 292 292 292 293 292 291 290 289 288 287 286 285 284 283 281 279 277 276 277 276 275 274 273 271 270 270 269 270 270 271 272 272 272 273 274 275 276
290 289 292 291 288 290 291 292 292 291 290 290 289 289 288 287 286 285 284 283 282 280 278 276 275 275 274 273 272 270 269 268 267 267 268 270 270 270 270 271 272 273 273 274
286 289 291 293 293 292 291 291 292 291 290 289 288 286 285 285 285 283 283 282 280 278 276 274 274 272 272 270 269 268 268 267 266 266 268 268 268 268 269 270 270 271 272 272
Wind_Speed
12 9 12 16 14 4 2 4 5 2 3 4 7 10 13 11 7 9 10 11 12 13 14 16 14 9 6 9 12 14 14 13 9 6 3 0 1 2 4 3 3 3 2 2
5 13 10 5 8 10 5 3 3 1 0 3 8 12 3 8 9 12 13 14 15 15 15 16 15 11 10 11 11 12 13 12 8 5 3 2 1 1 2 2 2 1 1 2
8 1 9 11 8 8 9 9 3 4 4 6 8 7 9 9 12 14 15 15 16 16 15 14 14 13 13 13 12 12 10 9 6 5 3 2 2 1 1 2 1 2 1 1
6 4 11 13 12 12 11 9 11 8 3 5 2 2 2 7 8 15 15 15 15 17 15 13 14 15 14 13 13 12 10 8 6 4 4 3 4 5 3 2 1 1 1 1
4 7 9 13 12 11 3 4 9 8 9 6 6 3 3 3 2 12 15 15 16 16 15 13 14 15 15 13 12 11 10 9 8 6 5 5 5 4 3 2 2 1 2 1
5 1 4 2 3 11 10 7 6 3 3 4 4 4 5 2 4 9 12 14 15 15 14 15 15 15 16 14 14 13 12 11 10 9 8 7 7 6 5 4 3 2 2 2
4 4 2 2 8 5 7 9 2 4 4 4 2 4 5 4 7 8 10 12 13 14 14 14 15 16 17 17 16 14 13 13 11 11 10 9 8 7 5 5 6 5 3 3
9 5 9 9 5 6 13 9 4 5 4 3 2 6 3 7 6 7 9 10 12 14 13 13 16 17 17 17 17 15 14 13 12 12 10 9 8 7 7 6 5 6 6 5
9 6 2 1 1 2 6 6 3 4 1 1 5 4 6 7 8 9 11 11 12 13 13 14 17 18 18 18 18 17 15 13 13 13 11 10 9 8 7 7 6 6 7 8
1 4 2 2 2 2 2 3 3 2 3 5 4 3 2 8 6 8 10 11 11 11 13 13 17 18 18 18 17 17 17 16 15 14 13 11 10 9 8 8 8 8 10 10
6 2 3 3 8 10 4 3 3 2 2 2 2 3 5 8 6 7 9 10 11 12 12 12 16 17 18 19 19 19 20 19 19 17 16 14 12 11 11 10 10 9 9 11
4 1 3 4 3 4 4 8 10 4 5 2 2 2 4 8 7 7 8 8 10 11 11 14 16 17 19 20 21 21 21 22 21 19 17 16 16 15 13 13 12 12 11 10
8 2 4 1 2 1 5 8 5 1 2 5 3 3 6 7 8 6 7 8 8 10 11 12 16 18 20 20 20 21 22 22 22 21 20 19 18 18 17 17 16 15 14 13
3 2 2 1 4 1 5 8 9 10 4 4 7 6 11 9 8 7 7 7 8 9 10 11 12 16 17 18 19 19 20 21 21 21 22 22 22 20 19 18 18 17 16 15
3 2 2 2 3 4 4 2 7 13 12 6 4 4 11 10 8 7 5 5 6 8 10 10 11 15 17 18 19 19 20 21 21 21 21 22 21 21 21 20 20 19 18 17
1 2 2 2 3 3 2 2 1 1 1 5 6 4 8 9 9 7 5 5 7 8 9 9 11 13 15 17 18 18 19 20 20 21 22 22 23 22 23 22 22 21 20 20
1 3 2 3 1 3 4 3 1 3 4 2 5 4 8 9 7 5 5 6 6 7 8 9 11 12 13 15 15 16 16 16 18 19 20 21 22 23 24 23 23 24 22 20
2 2 2 3 0 5 3 2 1 4 4 5 9 8 7 9 8 7 4 4 4 4 5 8 9 10 12 13 13 12 13 15 16 18 18 20 21 21 21 21 22 23 22 21
6 1 3 2 3 1 3 4 4 5 4 4 8 8 10 10 9 4 3 3 4 3 3 5 6 7 9 12 13 13 14 15 16 18 19 20 20 22 23 22 23 24 23 25
4 4 1 2 3 5 3 5 2 1 3 9 8 8 11 10 4 4 6 4 3 3 3 4 4 5 7 11 12 13 14 16 18 19 20 21 22 21 22 21 23 25 23 24
2 1 2 4 4 0 5 7 4 5 3 10 9 8 11 7 3 9 6 4 3 2 2 3 3 4 5 8 11 11 12 14 17 18 20 22 23 23 22 23 25 23 24 23
4 6 3 2 4 7 10 7 5 3 10 10 9 7 7 6 7 6 4 4 4 3 2 2 3 4 5 8 11 12 13 16 18 19 24 24 23 22 21 22 25 23 22 22
3 3 1 4 0 2 10 3 2 5 9 8 8 7 6 7 6 5 4 5 5 4 2 1 3 6 6 8 11 14 16 18 20 27 26 23 23 21 21 21 23 22 20 20
5 3 2 1 4 5 5 2 5 5 7 8 6 8 7 6 6 5 4 5 5 4 3 2 5 7 8 10 12 13 16 19 26 26 25 22 22 22 21 20 19 20 20 20
2 8 6 4 2 2 7 8 9 8 7 8 7 7 6 5 5 4 3 4 4 3 2 3 6 7 9 11 13 14 16 22 22 19 19 19 19 21 23 21 20 21 21 20
8 7 6 4 7 3 3 14 12 11 10 9 8 5 4 4 3 4 3 3 4 5 4 5 6 7 10 14 17 18 22 21 21 19 18 20 21 22 21 22 27 22 23 24
Wind_Direction
184 179 200 204 212 112 107 230 253 44 53 312 272 285 299 315 41 41 40 31 29 22 17 22 24 31 94 132 146 147 145 142 138 134 129 56 345 356 351 356 352 4 7 35
163 224 207 170 177 199 213 160 189 169 171 302 300 292 360 102 78 53 35 32 22 16 18 26 36 46 77 108 123 129 132 134 124 113 96 60 45 19 25 8 352 13 35 19
197 76 169 190 195 209 231 234 236 292 326 243 286 252 156 136 76 53 42 31 22 17 14 23 39 58 77 91 103 109 110 105 94 99 94 67 24 9 7 5 9 314 98 55
229 109 189 193 204 203 220 217 235 239 261 260 314 267 206 159 105 43 30 25 17 15 20 25 40 56 68 79 89 94 89 82 68 51 28 28 4 349 2 6 347 291 221 127
136 170 172 200 201 191 193 153 197 212 224 288 206 251 132 157 180 20 19 19 17 17 23 33 43 61 64 66 68 72 70 58 45 30 31 14 16 6 356 347 324 274 251 234
94 72 188 116 97 197 137 126 121 167 218 244 187 241 147 46 355 355 14 19 20 20 26 42 53 58 58 54 53 50 48 43 32 26 19 17 7 357 348 348 335 304 265 264
122 155 140 176 114 128 190 177 138 194 201 234 131 213 57 82 37 21 12 21 23 29 30 32 40 45 45 43 40 41 38 34 24 22 14 10 360 355 345 343 335 326 303 282
174 202 187 178 227 172 198 216 224 211 194 158 142 220 111 89 66 55 47 38 33 33 33 36 36 36 38 35 33 33 27 29 23 18 9 5 356 348 341 334 326 320 314 307
185 159 102 221 240 168 172 222 21 108 98 269 177 112 132 131 76 55 48 43 37 34 32 31 34 33 31 31 27 24 25 20 20 12 8 2 354 346 334 330 320 307 307 300
95 122 209 101 225 141 277 147 173 230 193 215 176 232 80 195 55 52 44 39 36 37 39 35 33 30 31 30 26 25 22 15 13 9 3 356 349 343 333 324 318 311 298 294
321 318 124 169 211 188 165 188 226 253 291 249 196 131 16 97 77 67 50 41 36 36 33 36 38 35 31 33 30 26 22 15 14 9 3 359 352 351 342 332 320 316 306 306
163 191 164 186 40 340 301 238 204 221 189 249 1 126 93 100 88 84 75 54 42 39 41 35 31 34 36 32 29 28 23 20 17 13 15 15 9 4 358 348 338 328 319 311
164 176 138 135 198 168 231 208 238 224 334 196 196 130 134 126 113 81 76 64 53 47 38 34 30 26 26 27 27 25 24 22 19 18 16 16 15 10 4 355 347 341 332 321
32 155 297 281 47 356 187 203 209 222 239 231 235 142 181 166 141 119 91 65 48 39 34 32 28 26 23 20 20 20 21 17 18 20 20 15 13 10 5 358 353 348 342 333
59 125 104 69 57 39 60 132 205 221 233 255 332 74 161 160 142 112 97 71 57 43 34 29 23 20 17 15 14 14 18 16 14 16 18 13 8 8 6 6 1 356 353 346
337 112 108 79 76 53 98 87 63 9 331 266 152 115 101 110 128 122 93 76 56 46 35 27 25 24 23 18 13 9 12 13 15 16 15 11 8 5 4 3 2 2 359 355
66 139 186 121 60 135 228 164 148 107 63 345 227 89 141 144 129 116 98 72 54 32 25 24 24 25 23 21 17 16 15 16 20 19 15 12 9 6 2 359 358 357 356 354
108 95 0 112 175 223 85 77 227 107 104 96 104 129 141 132 114 109 108 115 80 42 23 22 18 20 21 18 17 14 16 18 18 17 12 9 5 2 359 360 359 354 350 347
29 85 115 189 211 44 184 194 169 197 160 164 140 136 127 129 127 115 120 86 78 63 52 35 21 18 17 15 9 9 12 12 11 7 2 358 355 351 349 347 347 345 345 343
38 40 324 170 214 228 80 139 113 138 231 168 152 145 154 158 202 139 160 143 119 100 74 43 22 18 16 10 5 4 3 2 360 353 347 344 342 341 338 334 333 334 333 330
108 109 220 197 238 153 134 140 150 180 142 153 150 147 154 183 59 123 139 130 110 104 89 42 26 19 9 0 359 357 353 354 343 338 336 335 332 330 327 325 325 326 324 321
181 171 187 136 215 248 147 126 209 116 133 148 153 155 152 122 129 130 137 151 162 164 160 32 2 351 350 352 353 347 345 337 333 330 329 328 329 328 324 322 322 321 320 318
224 249 188 235 308 104 183 47 108 150 156 163 157 153 150 152 161 161 170 182 190 193 195 265 328 326 339 347 346 337 337 335 330 329 332 329 326 326 324 323 321 320 321 318
217 180 237 295 168 197 200 183 168 172 161 154 152 153 162 168 169 179 189 197 204 206 228 274 317 323 330 336 333 331 329 328 328 330 329 327 326 324 324 320 317 314 315 316
51 159 189 254 214 205 244 218 187 171 147 148 149 164 176 182 187 197 219 233 238 237 254 300 314 317 319 321 320 324 325 327 327 324 321 321 320 319 317 315 311 308 302 302
189 184 187 211 169 197 178 193 186 174 179 176 165 166 190 199 206 183 237 240 229 229 242 282 299 309 312 316 318 325 329 329 326 322 322 319 317 315 314 313 311 305 300 302